Charlottetown, Prince Edward Island

3:01 PM AST on February 23, 2018 (GMT -0400)
Charlottetown

Weather History for CYYG - October, 2012

Change the Weather History Date:

Tuesday, October 23, 2012

  Actual Average Record
Temperature  
Mean Temperature 43 °F -  
Max Temperature 45 °F 46 °F 68 °F (2007)
Min Temperature 41 °F 32 °F 25 °F (2017)
Degree Days  
Heating Degree Days 22    
Moisture  
Dew Point 35 °F    
Average Humidity 71    
Maximum Humidity 81    
Minimum Humidity 54    
Precipitation  
Precipitation 0.08 in 0.16 in - ()
Sea Level Pressure  
Sea Level Pressure 29.81 in    
Wind  
Wind Speed 10 mph ()    
Max Wind Speed 21 mph    
Max Gust Speed 28 mph    
Visibility 14.7 miles    
Events Rain    
Averages and records for this station are not official NWS values.
T = Trace of Precipitation, MM = Missing Value Source: Averaged Metar Reports

Daily Weather History Graph

Daily Weather History Graph

Search for Another Location

Airport or City:

Trip Planner

Search our weather history database for the weather conditions in past years. The results will help you decide how hot, cold, wet, or windy it might be!

Date:

Astronomy

Oct. 23, 2012 Rise Set
Actual Time 7:41 AM ADT 6:11 PM ADT
Civil Twilight 7:10 AM ADT 6:42 PM ADT
Nautical Twilight 6:35 AM ADT 7:17 PM ADT
Astronomical Twilight 6:00 AM ADT 7:51 PM ADT
Moon 3:10 PM ADT 1:08 AM ADT
Length of Visible Light 11h 31m
Length of Day
10h 29m
Waxing Gibbous, 66% of the Moon is Illuminated
Oct 23
Waxing Gibbous
Oct 29
Full
Nov 6
Last Quarter
Nov 13
New
Nov 20
First Quarter

Hourly Weather History & Observations

Time (ADT) Temp. Windchill Dew Point Humidity Pressure Visibility Wind Dir Wind Speed Gust Speed Precip Events Conditions
12:00 AM 46.4 °F 42.4 °F 37.4 °F 71% 29.66 in 15.0 mi West 8.1 mph - N/A   Mostly Cloudy
1:00 AM 44.6 °F 39.2 °F 37.4 °F 76% 29.67 in 15.0 mi WNW 10.4 mph 18.4 mph N/A   Overcast
2:00 AM 42.8 °F 36.6 °F 35.6 °F 76% 29.68 in 15.0 mi WNW 11.5 mph 19.6 mph N/A   Scattered Clouds
3:00 AM 43 °F - 35 °F 65% 29.69 in 15 mi WNW 10.4 mph - -   Mostly Cloudy
4:00 AM 42.8 °F 38.0 °F 35.6 °F 76% 29.69 in 15.0 mi West 8.1 mph 17.3 mph N/A   Mostly Cloudy
5:00 AM 42.8 °F 37.0 °F 35.6 °F 76% 29.69 in 15.0 mi West 10.4 mph - N/A   Mostly Cloudy
6:00 AM 42.8 °F 38.0 °F 35.6 °F 76% 29.71 in 15.0 mi West 8.1 mph - N/A   Mostly Cloudy
7:00 AM 42.8 °F 37.0 °F 35.6 °F 76% 29.73 in 15.0 mi West 10.4 mph - N/A   Overcast
8:00 AM 42.8 °F 37.0 °F 37.4 °F 81% 29.76 in 15.0 mi WNW 10.4 mph - N/A   Mostly Cloudy
9:00 AM 44 °F - 38 °F 71% 29.78 in 15 mi WNW 9.2 mph - -   Mostly Cloudy
10:00 AM 44.6 °F 39.2 °F 37.4 °F 76% 29.79 in 15.0 mi WNW 10.4 mph - N/A   Mostly Cloudy
11:00 AM 44.6 °F 38.1 °F 37.4 °F 76% 29.80 in 15.0 mi WNW 13.8 mph 24.2 mph N/A   Mostly Cloudy
12:00 PM 44.6 °F 38.1 °F 35.6 °F 71% 29.81 in 15.0 mi WNW 13.8 mph 23.0 mph N/A   Mostly Cloudy
1:00 PM 44.6 °F 37.8 °F 33.8 °F 66% 29.81 in 15.0 mi WNW 15.0 mph 20.7 mph N/A   Mostly Cloudy
2:00 PM 44.6 °F 38.1 °F 33.8 °F 66% 29.81 in 15.0 mi WNW 13.8 mph 21.9 mph N/A   Mostly Cloudy
3:00 PM 45 °F - 34 °F 54% 29.82 in 15 mi WNW 15.0 mph - -   Mostly Cloudy
3:00 PM 44.6 °F 37.2 °F 33.8 °F 66% 29.82 in 15.0 mi WNW 17.3 mph 25.3 mph N/A   Mostly Cloudy
4:00 PM 44.6 °F 38.8 °F 33.8 °F 66% 29.83 in 15.0 mi West 11.5 mph - N/A   Mostly Cloudy
5:00 PM 44.6 °F 38.8 °F 33.8 °F 66% 29.83 in 15.0 mi WNW 11.5 mph - N/A   Mostly Cloudy
6:00 PM 44.6 °F 38.4 °F 33.8 °F 66% 29.84 in 15.0 mi NW 12.7 mph 20.7 mph N/A   Mostly Cloudy
6:53 PM 42.8 °F 34.0 °F 35.6 °F 76% 29.87 in 15.0 mi WNW 20.7 mph 27.6 mph N/A Rain Light Rain Showers
7:00 PM 42.8 °F 35.4 °F 35.6 °F 76% 29.87 in 15.0 mi WNW 15.0 mph 27.6 mph N/A Rain Light Rain Showers
8:00 PM 42.8 °F 35.4 °F 33.8 °F 70% 29.89 in 10.0 mi WNW 15.0 mph 24.2 mph N/A Rain Light Rain Showers
8:30 PM 42.8 °F 35.8 °F 33.8 °F 70% 29.90 in 15.0 mi WNW 13.8 mph 21.9 mph N/A   Overcast
8:46 PM 42.8 °F 36.2 °F 33.8 °F 70% 29.90 in 15.0 mi WNW 12.7 mph 18.4 mph N/A Rain Light Rain Showers
9:00 PM 43 °F - 34 °F 60% 29.90 in 15 mi WNW 11.5 mph - - Rain Light Rain Showers
9:00 PM 42.8 °F 36.2 °F 33.8 °F 70% 29.90 in 15.0 mi WNW 12.7 mph 18.4 mph N/A Rain Light Rain Showers
10:00 PM 42.8 °F 34.8 °F 33.8 °F 70% 29.91 in 15.0 mi NW 17.3 mph - N/A   Mostly Cloudy
10:45 PM 41.0 °F 33.9 °F 33.8 °F 76% 29.91 in 12.0 mi NW 12.7 mph 20.7 mph N/A Rain Light Rain Showers
11:00 PM 41.0 °F 36.4 °F 33.8 °F 76% 29.91 in 15.0 mi WNW 6.9 mph - N/A Rain Light Rain Showers